Terug naar catalogus

SL-14 DEB

ActiefPO
NORAD 45316·DEBRIS·🇷🇺 Russia

Gelanceerd Aug 15, 1991 vanaf Plesetsk Cosmodrome

Loading…

Volgende Passages (komende 24 uur)

TLE

VersSource: Space-Track

Epoch: Sep 14, 2026, 09:09 UTC

1 45316U 91056BE  26257.38152536  .00001009  00000-0  19615-2 0  9999
2 45316  82.5949  47.4950 0106285 109.7407 251.5226 13.33401595318938

Volg SL-14 DEB in realtime met AllMySat

Download on the App Store